| time (UTC) | temp F | wind direction | speed MPH | gust MPH | rain 1hr in | rain 24hr in | rain mn in | humidity % | barometer mb |
| 20260502224750 | 62 | 247 | 2.0 | 2.0 | 0.00 | 0.00 | 0.00 | 36 | 1019.7 |
| 20260502224246 | 63 | 304 | 5.0 | 6.0 | 0.00 | 0.00 | 0.00 | 35 | 1019.9 |
| 20260502223744 | 64 | 283 | 6.0 | 7.0 | 0.00 | 0.00 | 0.00 | 34 | 1019.7 |
| 20260502223242 | 63 | 276 | 3.0 | 3.0 | 0.00 | 0.00 | 0.00 | 34 | 1020.0 |
| 20260502222739 | 64 | 272 | 3.0 | 3.0 | 0.00 | 0.00 | 0.00 | 34 | 1019.8 |
| 20260502222236 | 64 | 322 | 5.0 | 6.0 | 0.00 | 0.00 | 0.00 | 33 | 1019.9 |
| 20260502221732 | 64 | 13 | 6.0 | 7.0 | 0.00 | 0.00 | 0.00 | 33 | 1019.8 |
| 20260502221229 | 64 | 358 | 6.0 | 7.0 | 0.00 | 0.00 | 0.00 | 33 | 1019.9 |
| 20260502220725 | 64 | 279 | 3.0 | 3.0 | 0.00 | 0.00 | 0.00 | 36 | 1019.9 |
| 20260502220221 | 64 | 243 | 4.0 | 5.0 | 0.00 | 0.00 | 0.00 | 38 | 1019.9 |
| 20260502215718 | 64 | 357 | 4.0 | 5.0 | 0.00 | 0.00 | 0.00 | 32 | 1019.7 |
| 20260502215215 | 64 | 6 | 4.0 | 6.0 | 0.00 | 0.00 | 0.00 | 32 | 1020.1 |
| 20260502214713 | 64 | 15 | 3.0 | 3.0 | 0.00 | 0.00 | 0.00 | 32 | 1019.8 |
| 20260502214210 | 65 | 314 | 7.0 | 8.0 | 0.00 | 0.00 | 0.00 | 33 | 1019.9 |
| 20260502213707 | 64 | 2 | 3.0 | 5.0 | 0.00 | 0.00 | 0.00 | 32 | 1019.9 |
| 20260502213204 | 64 | 242 | 5.0 | 7.0 | 0.00 | 0.00 | 0.00 | 40 | 1019.9 |
| 20260502212702 | 65 | 284 | 4.0 | 5.0 | 0.00 | 0.00 | 0.00 | 33 | 1020.0 |
| 20260502212155 | 65 | 98 | 1.0 | 1.0 | 0.00 | 0.00 | 0.00 | 34 | 1019.9 |
| 20260502211650 | 64 | 13 | 5.0 | 6.0 | 0.00 | 0.00 | 0.00 | 34 | 1020.2 |
| 20260502211148 | 63 | 296 | 3.0 | 3.0 | 0.00 | 0.00 | 0.00 | 33 | 1020.1 |
| 20260502210645 | 62 | 265 | 3.0 | 6.0 | 0.00 | 0.00 | 0.00 | 39 | 1020.2 |
| 20260502210141 | 62 | 213 | 0.0 | 0.0 | 0.00 | 0.00 | 0.00 | 36 | 1020.3 |
| 20260502205638 | 64 | 309 | 5.0 | 6.0 | 0.00 | 0.00 | 0.00 | 35 | 1020.5 |
| 20260502205135 | 64 | 5 | 5.0 | 8.0 | 0.00 | 0.00 | 0.00 | 33 | 1020.5 |
| 20260502204632 | 64 | 354 | 6.0 | 8.0 | 0.00 | 0.00 | 0.00 | 36 | 1020.3 |
| 20260502204129 | 64 | 295 | 4.0 | 5.0 | 0.00 | 0.00 | 0.00 | 36 | 1020.5 |
| 20260502203626 | 63 | 277 | 6.0 | 7.0 | 0.00 | 0.00 | 0.00 | 33 | 1020.5 |
| 20260502203124 | 63 | 320 | 7.0 | 8.0 | 0.00 | 0.00 | 0.00 | 34 | 1020.8 |
| 20260502202619 | 63 | 240 | 3.0 | 3.0 | 0.00 | 0.00 | 0.00 | 37 | 1020.7 |
| 20260502202117 | 63 | 282 | 3.0 | 3.0 | 0.00 | 0.00 | 0.00 | 35 | 1020.6 |
| 20260502201613 | 63 | 328 | 3.0 | 3.0 | 0.00 | 0.00 | 0.00 | 38 | 1020.9 |
| 20260502201104 | 63 | 322 | 3.0 | 6.0 | 0.00 | 0.00 | 0.00 | 37 | 1020.8 |
| 20260502200600 | 63 | 233 | 2.0 | 2.0 | 0.00 | 0.00 | 0.00 | 35 | 1021.0 |
| 20260502200058 | 63 | 292 | 5.0 | 6.0 | 0.00 | 0.00 | 0.00 | 34 | 1021.0 |
| 20260502195556 | 64 | 335 | 5.0 | 7.0 | 0.00 | 0.00 | 0.00 | 36 | 1020.9 |
| 20260502195051 | 62 | 275 | 1.0 | 2.0 | 0.00 | 0.00 | 0.00 | 34 | 1020.8 |
| 20260502194548 | 62 | 346 | 6.0 | 8.0 | 0.00 | 0.00 | 0.00 | 36 | 1021.1 |
| 20260502194044 | 62 | 330 | 6.0 | 7.0 | 0.00 | 0.00 | 0.00 | 37 | 1021.0 |
| 20260502193541 | 63 | 308 | 4.0 | 5.0 | 0.00 | 0.00 | 0.00 | 36 | 1021.2 |
| 20260502193033 | 63 | 291 | 4.0 | 5.0 | 0.00 | 0.00 | 0.00 | 44 | 1021.1 |
| 20260502192528 | 64 | 321 | 6.0 | 9.0 | 0.00 | 0.00 | 0.00 | 38 | 1021.0 |
| 20260502192026 | 63 | 343 | 3.0 | 5.0 | 0.00 | 0.00 | 0.00 | 39 | 1021.1 |
| 20260502191523 | 63 | 250 | 4.0 | 5.0 | 0.00 | 0.00 | 0.00 | 40 | 1021.3 |
| 20260502191020 | 62 | 270 | 5.0 | 7.0 | 0.00 | 0.00 | 0.00 | 39 | 1021.2 |
| 20260502190517 | 62 | 244 | 2.0 | 2.0 | 0.00 | 0.00 | 0.00 | 37 | 1021.5 |
| 20260502190014 | 63 | 283 | 5.0 | 6.0 | 0.00 | 0.00 | 0.00 | 36 | 1021.4 |
| 20260502185509 | 61 | 181 | 1.0 | 3.0 | 0.00 | 0.00 | 0.00 | 38 | 1021.4 |
| 20260502185006 | 61 | 253 | 5.0 | 7.0 | 0.00 | 0.00 | 0.00 | 44 | 1021.3 |
| 20260502184456 | 63 | 245 | 5.0 | 6.0 | 0.00 | 0.00 | 0.00 | 40 | 1021.4 |
| 20260502183953 | 62 | 311 | 3.0 | 3.0 | 0.00 | 0.00 | 0.00 | 35 | 1021.3 |
| 20260502183449 | 61 | 298 | 2.0 | 2.0 | 0.00 | 0.00 | 0.00 | 38 | 1021.7 |
| 20260502182943 | 60 | 296 | 6.0 | 7.0 | 0.00 | 0.00 | 0.00 | 39 | 1021.6 |
| 20260502182439 | 62 | 246 | 6.0 | 7.0 | 0.00 | 0.00 | 0.00 | 46 | 1021.5 |
| 20260502181936 | 61 | 257 | 6.0 | 7.0 | 0.00 | 0.00 | 0.00 | 45 | 1021.5 |
| 20260502181434 | 61 | 276 | 3.0 | 3.0 | 0.00 | 0.00 | 0.00 | 42 | 1021.7 |
| 20260502180932 | 62 | 321 | 5.0 | 6.0 | 0.00 | 0.00 | 0.00 | 38 | 1021.7 |
| 20260502180429 | 62 | 231 | 1.0 | 2.0 | 0.00 | 0.00 | 0.00 | 41 | 1021.4 |
| 20260502170348 | 58 | 343 | 5.0 | 6.0 | 0.00 | 0.00 | 0.00 | 45 | 1022.5 |
| 20260502164335 | 59 | 227 | 2.0 | 2.0 | 0.00 | 0.00 | 0.00 | 45 | 1022.2 |
| 20260502163831 | 58 | 335 | 3.0 | 5.0 | 0.00 | 0.00 | 0.00 | 43 | 1022.3 |
| 20260502163327 | 59 | 280 | 4.0 | 6.0 | 0.00 | 0.00 | 0.00 | 43 | 1022.2 |
| 20260502162825 | 59 | 263 | 3.0 | 3.0 | 0.00 | 0.00 | 0.00 | 44 | 1022.1 |
| 20260502162322 | 61 | 211 | 1.0 | 1.0 | 0.00 | 0.00 | 0.00 | 40 | 1022.3 |
| 20260502161819 | 61 | 188 | 2.0 | 2.0 | 0.00 | 0.00 | 0.00 | 38 | 1022.1 |
| 20260502161315 | 59 | 334 | 2.0 | 2.0 | 0.00 | 0.00 | 0.00 | 42 | 1022.1 |
| 20260502160813 | 59 | 268 | 1.0 | 1.0 | 0.00 | 0.00 | 0.00 | 42 | 1022.0 |
| 20260502160312 | 58 | 316 | 2.0 | 3.0 | 0.00 | 0.00 | 0.00 | 41 | 1022.1 |
| 20260502152242 | 58 | 311 | 1.0 | 2.0 | 0.00 | 0.00 | 0.00 | 50 | 1022.3 |
| 20260502151739 | 58 | 332 | 6.0 | 7.0 | 0.00 | 0.00 | 0.00 | 50 | 1022.2 |
| 20260502151236 | 58 | 310 | 6.0 | 7.0 | 0.00 | 0.00 | 0.00 | 48 | 1022.1 |
| 20260502150733 | 58 | 302 | 2.0 | 3.0 | 0.00 | 0.00 | 0.00 | 52 | 1022.2 |
| 20260502150229 | 57 | 348 | 4.0 | 5.0 | 0.00 | 0.00 | 0.00 | 53 | 1022.1 |
| 20260502130613 | 45 | 236 | 0.0 | 1.0 | 0.00 | 0.00 | 0.00 | 90 | 1021.7 |
| 20260502130110 | 44 | 236 | 0.0 | 1.0 | 0.00 | 0.00 | 0.00 | 93 | 1021.5 |
| 20260502123555 | 42 | 152 | 0.0 | 0.0 | 0.00 | 0.00 | 0.00 | 97 | 1021.5 |
| 20260502123052 | 42 | 178 | 0.0 | 0.0 | 0.00 | 0.00 | 0.00 | 97 | 1021.4 |
| 20260502122549 | 42 | 157 | 0.0 | 0.0 | 0.00 | 0.00 | 0.00 | 97 | 1021.2 |
| 20260502122046 | 41 | 138 | 0.0 | 0.0 | 0.00 | 0.00 | 0.00 | 97 | 1021.3 |
| 20260502121544 | 41 | 145 | 0.0 | 0.0 | 0.00 | 0.00 | 0.00 | 97 | 1021.3 |
| 20260502121041 | 41 | 168 | 0.0 | 0.0 | 0.00 | 0.00 | 0.00 | 97 | 1021.4 |
| 20260502120537 | 41 | 145 | 0.0 | 0.0 | 0.00 | 0.00 | 0.00 | 97 | 1021.0 |
| 20260502115532 | 41 | 45 | 0.0 | 0.0 | 0.00 | 0.00 | 0.00 | 97 | 1020.8 |
| 20260502115027 | 41 | 42 | 0.0 | 0.0 | 0.00 | 0.00 | 0.00 | 97 | 1020.7 |
| 20260502114524 | 41 | 42 | 0.0 | 0.0 | 0.00 | 0.00 | 0.00 | 97 | 1020.8 |
| 20260502114021 | 41 | 126 | 0.0 | 0.0 | 0.00 | 0.00 | 0.00 | 97 | 1020.6 |
| 20260502113519 | 40 | 114 | 0.0 | 0.0 | 0.00 | 0.00 | 0.00 | 97 | 1020.6 |
| 20260502113017 | 40 | 54 | 0.0 | 0.0 | 0.00 | 0.00 | 0.00 | 97 | 1020.6 |
| 20260502112515 | 40 | 54 | 0.0 | 0.0 | 0.00 | 0.00 | 0.00 | 97 | 1020.5 |
| 20260502112012 | 40 | 57 | 0.0 | 0.0 | 0.00 | 0.00 | 0.00 | 97 | 1020.7 |
| 20260502111509 | 40 | 60 | 0.0 | 0.0 | 0.00 | 0.00 | 0.00 | 97 | 1020.5 |
| 20260502111007 | 40 | 122 | 0.0 | 0.0 | 0.00 | 0.00 | 0.00 | 97 | 1020.3 |
| 20260502110504 | 40 | 162 | 0.0 | 0.0 | 0.00 | 0.00 | 0.00 | 97 | 1020.3 |
| 20260502110001 | 40 | 137 | 0.0 | 0.0 | 0.00 | 0.00 | 0.00 | 97 | 1020.3 |
| 20260502105459 | 40 | 177 | 0.0 | 0.0 | 0.00 | 0.00 | 0.00 | 97 | 1020.1 |
| 20260502104956 | 40 | 190 | 0.0 | 0.0 | 0.00 | 0.00 | 0.00 | 97 | 1020.2 |
| 20260502104453 | 40 | 257 | 0.0 | 0.0 | 0.00 | 0.00 | 0.00 | 97 | 1020.2 |
| 20260502103950 | 40 | 187 | 0.0 | 0.0 | 0.00 | 0.00 | 0.00 | 97 | 1020.5 |
| 20260502103448 | 40 | 186 | 0.0 | 0.0 | 0.00 | 0.00 | 0.00 | 97 | 1020.1 |
| 20260502102945 | 40 | 186 | 0.0 | 0.0 | 0.00 | 0.00 | 0.00 | 97 | 1020.1 |
| 20260502102442 | 41 | 167 | 0.0 | 0.0 | 0.00 | 0.00 | 0.00 | 97 | 1020.0 |
| 20260502101938 | 40 | 161 | 0.0 | 0.0 | 0.00 | 0.00 | 0.00 | 97 | 1019.9 |
| 20260502101437 | 41 | 259 | 0.0 | 0.0 | 0.00 | 0.00 | 0.00 | 97 | 1019.9 |
| 20260502100935 | 40 | 152 | 0.0 | 1.0 | 0.00 | 0.00 | 0.00 | 97 | 1019.8 |
| 20260502100434 | 40 | 251 | 0.0 | 0.0 | 0.00 | 0.00 | 0.00 | 97 | 1019.8 |
| 20260502091408 | 41 | 153 | 0.0 | 0.0 | 0.00 | 0.00 | 0.00 | 97 | 1019.3 |
| 20260502090904 | 41 | 222 | 0.0 | 0.0 | 0.00 | 0.00 | 0.00 | 97 | 1019.5 |
| 20260502090401 | 42 | 195 | 0.0 | 0.0 | 0.00 | 0.00 | 0.00 | 97 | 1019.3 |
| 20260502071256 | 44 | 189 | 0.0 | 0.0 | 0.00 | 0.00 | 0.00 | 96 | 1019.0 |
| 20260502070755 | 44 | 268 | 1.0 | 1.0 | 0.00 | 0.00 | 0.00 | 96 | 1018.9 |
| 20260502070252 | 44 | 346 | 1.0 | 1.0 | 0.00 | 0.00 | 0.00 | 95 | 1019.1 |
| 20260502065751 | 44 | 349 | 0.0 | 0.0 | 0.00 | 0.00 | 0.00 | 95 | 1019.1 |
| 20260502065248 | 44 | 7 | 1.0 | 1.0 | 0.00 | 0.00 | 0.00 | 95 | 1019.2 |
| 20260502064746 | 44 | 29 | 1.0 | 1.0 | 0.00 | 0.00 | 0.00 | 95 | 1019.1 |
| 20260502064244 | 44 | 326 | 1.0 | 1.0 | 0.00 | 0.00 | 0.00 | 95 | 1019.1 |
| 20260502063741 | 44 | 299 | 0.0 | 0.0 | 0.00 | 0.00 | 0.00 | 95 | 1018.9 |
| 20260502063239 | 44 | 287 | 0.0 | 1.0 | 0.00 | 0.00 | 0.00 | 95 | 1019.2 |
| 20260502062735 | 45 | 225 | 0.0 | 0.0 | 0.00 | 0.00 | 0.00 | 95 | 1019.1 |
| 20260502062233 | 45 | 184 | 0.0 | 0.0 | 0.00 | 0.00 | 0.00 | 95 | 1019.2 |
| 20260502061732 | 45 | 228 | 0.0 | 0.0 | 0.00 | 0.00 | 0.00 | 95 | 1019.2 |
| 20260502061229 | 45 | 190 | 0.0 | 0.0 | 0.00 | 0.00 | 0.00 | 95 | 1019.2 |
| 20260502060724 | 45 | 186 | 0.0 | 0.0 | 0.00 | 0.00 | 0.00 | 95 | 1019.4 |
| 20260502060220 | 45 | 202 | 0.0 | 0.0 | 0.00 | 0.00 | 0.00 | 95 | 1019.4 |
| 20260502055718 | 45 | 212 | 0.0 | 0.0 | 0.00 | 0.00 | 0.00 | 95 | 1019.2 |
| 20260502055216 | 45 | 215 | 0.0 | 0.0 | 0.00 | 0.00 | 0.00 | 95 | 1019.3 |
| 20260502054715 | 45 | 220 | 0.0 | 0.0 | 0.00 | 0.00 | 0.00 | 94 | 1019.3 |
| 20260502054212 | 45 | 210 | 0.0 | 0.0 | 0.00 | 0.00 | 0.00 | 94 | 1019.0 |
| 20260502053709 | 46 | 182 | 0.0 | 0.0 | 0.00 | 0.00 | 0.00 | 94 | 1019.3 |
| 20260502053206 | 46 | 51 | 2.0 | 2.0 | 0.00 | 0.00 | 0.00 | 94 | 1019.0 |
| 20260502052704 | 46 | 280 | 0.0 | 1.0 | 0.00 | 0.00 | 0.00 | 94 | 1019.2 |
| 20260502052203 | 46 | 232 | 0.0 | 0.0 | 0.00 | 0.00 | 0.00 | 94 | 1019.0 |
| 20260502051700 | 47 | 179 | 0.0 | 0.0 | 0.00 | 0.00 | 0.00 | 93 | 1018.9 |
| 20260502051158 | 47 | 225 | 0.0 | 0.0 | 0.00 | 0.00 | 0.00 | 93 | 1019.0 |
| 20260502050654 | 47 | 192 | 0.0 | 0.0 | 0.00 | 0.00 | 0.00 | 93 | 1018.9 |
| 20260502050151 | 47 | 268 | 1.0 | 1.0 | 0.00 | 0.00 | 0.00 | 93 | 1018.9 |
| 20260502045648 | 47 | 274 | 1.0 | 1.0 | 0.00 | 0.01 | 0.01 | 93 | 1018.9 |
| 20260502045145 | 47 | 290 | 1.0 | 1.0 | 0.00 | 0.01 | 0.01 | 92 | 1019.0 |
| 20260502044641 | 47 | 306 | 1.0 | 1.0 | 0.00 | 0.01 | 0.01 | 92 | 1018.9 |
| 20260502044137 | 47 | 289 | 1.0 | 1.0 | 0.00 | 0.01 | 0.01 | 92 | 1018.9 |
| 20260502043635 | 47 | 300 | 1.0 | 1.0 | 0.00 | 0.01 | 0.01 | 91 | 1019.0 |
| 20260502043132 | 47 | 278 | 1.0 | 1.0 | 0.00 | 0.01 | 0.01 | 91 | 1018.8 |
| 20260502042626 | 48 | 204 | 0.0 | 0.0 | 0.00 | 0.01 | 0.01 | 91 | 1018.9 |
| 20260502042123 | 48 | 276 | 0.0 | 0.0 | 0.00 | 0.01 | 0.01 | 90 | 1018.9 |
| 20260502041621 | 48 | 194 | 0.0 | 0.0 | 0.00 | 0.01 | 0.01 | 90 | 1019.0 |
| 20260502041118 | 48 | 199 | 0.0 | 0.0 | 0.00 | 0.01 | 0.01 | 89 | 1019.0 |
| 20260502040615 | 48 | 212 | 0.0 | 0.0 | 0.00 | 0.01 | 0.01 | 89 | 1019.2 |
| 20260502040112 | 48 | 200 | 0.0 | 0.0 | 0.00 | 0.01 | 0.01 | 89 | 1019.2 |
| 20260502035608 | 48 | 193 | 0.0 | 0.0 | 0.00 | 0.01 | 0.01 | 89 | 1019.1 |
| 20260502035105 | 48 | 229 | 0.0 | 0.0 | 0.00 | 0.01 | 0.01 | 88 | 1019.1 |
| 20260502034603 | 48 | 183 | 0.0 | 0.0 | 0.00 | 0.01 | 0.01 | 88 | 1019.0 |
| 20260502034101 | 48 | 231 | 0.0 | 0.0 | 0.00 | 0.01 | 0.01 | 88 | 1019.1 |
| 20260502033559 | 48 | 198 | 0.0 | 0.0 | 0.00 | 0.01 | 0.01 | 87 | 1019.1 |
| 20260502033056 | 48 | 189 | 0.0 | 0.0 | 0.00 | 0.01 | 0.01 | 87 | 1019.1 |
| 20260502032552 | 48 | 230 | 0.0 | 0.0 | 0.00 | 0.01 | 0.01 | 87 | 1018.9 |
| 20260502032049 | 48 | 293 | 1.0 | 2.0 | 0.00 | 0.01 | 0.01 | 86 | 1019.1 |
| 20260502031547 | 49 | 286 | 1.0 | 1.0 | 0.00 | 0.01 | 0.01 | 85 | 1019.0 |
| 20260502031044 | 49 | 53 | 1.0 | 1.0 | 0.00 | 0.01 | 0.01 | 85 | 1018.9 |
| 20260502030543 | 50 | 326 | 2.0 | 2.0 | 0.00 | 0.01 | 0.01 | 84 | 1019.0 |
| 20260502030040 | 50 | 201 | 0.0 | 0.0 | 0.00 | 0.01 | 0.01 | 83 | 1019.1 |
| 20260502025537 | 50 | 254 | 1.0 | 1.0 | 0.00 | 0.01 | 0.01 | 82 | 1018.9 |
| 20260502025036 | 50 | 198 | 0.0 | 0.0 | 0.00 | 0.01 | 0.01 | 82 | 1018.9 |
| 20260502024532 | 50 | 44 | 1.0 | 1.0 | 0.00 | 0.01 | 0.01 | 81 | 1018.6 |
| 20260502024031 | 51 | 184 | 0.0 | 0.0 | 0.00 | 0.01 | 0.01 | 81 | 1018.6 |
| 20260502023528 | 51 | 7 | 1.0 | 1.0 | 0.00 | 0.01 | 0.01 | 81 | 1018.6 |
| 20260502023025 | 51 | 35 | 1.0 | 1.0 | 0.00 | 0.01 | 0.01 | 80 | 1018.6 |
| 20260502022522 | 51 | 37 | 0.0 | 1.0 | 0.00 | 0.01 | 0.01 | 78 | 1018.1 |
| 20260502022020 | 52 | 23 | 1.0 | 1.0 | 0.00 | 0.01 | 0.01 | 78 | 1018.0 |
| 20260502021517 | 52 | 21 | 0.0 | 0.0 | 0.00 | 0.01 | 0.01 | 76 | 1018.1 |
| 20260502021014 | 52 | 48 | 0.0 | 0.0 | 0.00 | 0.01 | 0.01 | 76 | 1018.2 |
| 20260502020512 | 52 | 29 | 1.0 | 1.0 | 0.00 | 0.01 | 0.01 | 74 | 1018.0 |
| 20260502020009 | 52 | 4 | 1.0 | 1.0 | 0.00 | 0.01 | 0.01 | 73 | 1017.9 |
| 20260502015507 | 53 | 30 | 0.0 | 0.0 | 0.00 | 0.01 | 0.01 | 71 | 1017.8 |
| 20260502015002 | 53 | 48 | 0.0 | 0.0 | 0.00 | 0.01 | 0.01 | 71 | 1017.9 |
| 20260502014459 | 53 | 29 | 1.0 | 1.0 | 0.00 | 0.01 | 0.01 | 68 | 1017.8 |
| 20260502013956 | 54 | 29 | 1.0 | 1.0 | 0.00 | 0.01 | 0.01 | 67 | 1017.7 |
| 20260502013451 | 54 | 48 | 1.0 | 1.0 | 0.00 | 0.01 | 0.01 | 66 | 1017.7 |
| 20260502012948 | 55 | 44 | 1.0 | 1.0 | 0.00 | 0.01 | 0.01 | 64 | 1017.4 |
| 20260502012446 | 55 | 49 | 0.0 | 0.0 | 0.00 | 0.01 | 0.01 | 64 | 1017.3 |
| 20260502011943 | 56 | 14 | 1.0 | 1.0 | 0.00 | 0.01 | 0.01 | 65 | 1017.3 |
| 20260502011439 | 56 | 51 | 0.0 | 0.0 | 0.00 | 0.01 | 0.01 | 61 | 1017.3 |
| 20260502010936 | 56 | 50 | 0.0 | 1.0 | 0.00 | 0.01 | 0.01 | 60 | 1017.1 |
| 20260502010433 | 57 | 52 | 1.0 | 1.0 | 0.00 | 0.01 | 0.01 | 60 | 1017.1 |
| 20260502005929 | 57 | 39 | 1.0 | 2.0 | 0.00 | 0.01 | 0.01 | 58 | 1016.7 |
| 20260502005427 | 59 | 48 | 1.0 | 1.0 | 0.00 | 0.01 | 0.01 | 58 | 1017.0 |
| 20260502004925 | 60 | 54 | 0.0 | 1.0 | 0.00 | 0.01 | 0.01 | 48 | 1016.9 |
| 20260502004421 | 61 | 6 | 1.0 | 1.0 | 0.00 | 0.01 | 0.01 | 52 | 1016.9 |
| 20260502003918 | 62 | 313 | 1.0 | 1.0 | 0.00 | 0.01 | 0.01 | 52 | 1016.7 |
| 20260502003416 | 62 | 264 | 1.0 | 1.0 | 0.00 | 0.01 | 0.01 | 46 | 1016.7 |
| 20260502002911 | 63 | 256 | 1.0 | 1.0 | 0.00 | 0.01 | 0.01 | 44 | 1016.8 |
| 20260502002409 | 63 | 248 | 1.0 | 1.0 | 0.00 | 0.01 | 0.01 | 39 | 1016.7 |
| 20260502001906 | 63 | 306 | 2.0 | 2.0 | 0.00 | 0.01 | 0.01 | 39 | 1016.5 |
| 20260502001403 | 64 | 8 | 4.0 | 5.0 | 0.00 | 0.01 | 0.01 | 38 | 1016.9 |
| 20260502000901 | 64 | 297 | 3.0 | 3.0 | 0.00 | 0.01 | 0.01 | 37 | 1016.5 |
| 20260502000402 | 64 | 278 | 3.0 | 3.0 | 0.00 | 0.01 | 0.01 | 37 | 1016.8 |
| 20260501235855 | 64 | 290 | 3.0 | 3.0 | 0.00 | 0.01 | 0.01 | 37 | 1016.6 |
| 20260501235351 | 64 | 263 | 3.0 | 3.0 | 0.00 | 0.01 | 0.01 | 42 | 1016.6 |
| 20260501234846 | 64 | 270 | 2.0 | 3.0 | 0.00 | 0.01 | 0.01 | 39 | 1016.8 |
| 20260501234343 | 64 | 259 | 3.0 | 5.0 | 0.00 | 0.01 | 0.01 | 38 | 1016.7 |
| 20260501233842 | 64 | 260 | 2.0 | 3.0 | 0.00 | 0.01 | 0.01 | 37 | 1016.9 |
| 20260501233339 | 63 | 257 | 3.0 | 3.0 | 0.00 | 0.01 | 0.01 | 39 | 1016.8 |
| 20260501232834 | 63 | 309 | 3.0 | 3.0 | 0.00 | 0.01 | 0.01 | 39 | 1016.8 |
| 20260501232332 | 63 | 299 | 3.0 | 3.0 | 0.00 | 0.01 | 0.01 | 40 | 1016.8 |
| 20260501231829 | 63 | 265 | 6.0 | 7.0 | 0.00 | 0.01 | 0.01 | 40 | 1016.7 |
| 20260501231327 | 63 | 337 | 3.0 | 3.0 | 0.00 | 0.01 | 0.01 | 41 | 1016.6 |
| 20260501230825 | 63 | 270 | 3.0 | 3.0 | 0.00 | 0.01 | 0.01 | 41 | 1016.6 |
| 20260501230324 | 63 | 286 | 3.0 | 3.0 | 0.00 | 0.01 | 0.01 | 37 | 1016.8 |
| 20260501225821 | 63 | 254 | 5.0 | 6.0 | 0.00 | 0.01 | 0.01 | 37 | 1016.8 |
| 20260501225319 | 64 | 324 | 7.0 | 9.0 | 0.00 | 0.01 | 0.01 | 36 | 1016.7 |